Wind_Speed
30 31 31 32 33 33 31 29 28 28 28 28 29 28 28 27 26 26 25 24 23 23 22 21 20 19 19 18 18 17 16 16 15 15 14 14 13 14 14 14 13 13 13 13 13 13 13 13 13
30 31 31 33 34 33 31 29 29 29 30 30 30 31 30 29 28 27 26 26 25 24 23 22 22 21 20 20 20 19 18 18 17 17 16 15 14 15 15 15 15 15 15 15 15 14 14 14 15
30 30 31 32 33 31 30 30 30 31 31 32 32 32 32 31 29 28 27 27 26 26 25 24 23 22 22 22 21 21 20 19 19 18 18 17 17 17 17 17 17 17 16 16 16 16 16 16 16
30 31 32 33 32 31 30 30 31 31 32 32 33 33 33 32 31 29 28 28 28 27 26 25 25 24 23 23 23 22 21 21 21 20 20 20 19 19 19 19 19 19 19 18 18 18 18 18 18
30 31 32 33 32 31 30 30 30 31 31 32 34 34 34 34 33 31 30 29 29 28 27 27 26 26 25 24 23 23 22 22 22 22 21 21 22 21 21 21 21 21 21 21 21 20 20 20 20
31 32 32 31 30 31 31 31 31 31 31 32 34 35 35 35 34 32 31 31 30 30 29 28 28 27 26 25 24 24 24 23 23 24 23 23 23 23 23 23 22 22 23 22 22 22 22 22 22
31 32 32 32 30 30 30 30 31 32 32 32 33 34 34 34 34 33 32 31 31 31 30 29 29 28 27 27 26 26 26 25 25 25 24 24 24 24 25 25 25 25 25 24 24 25 24 24 24
31 31 31 30 29 29 29 30 30 31 32 32 33 33 33 34 34 33 33 32 32 32 31 30 30 30 29 28 28 28 28 27 26 26 26 26 25 26 26 27 27 27 28 28 28 27 27 27 27
31 32 30 28 28 28 28 29 30 31 32 32 33 33 34 35 34 34 34 34 33 32 32 32 32 31 30 30 30 29 30 30 29 28 28 28 28 28 28 28 29 29 29 30 30 30 30 30 30
32 32 30 29 29 29 29 30 30 31 32 32 33 34 35 36 36 36 36 35 34 34 33 33 33 33 32 32 32 32 31 32 31 30 30 30 30 30 30 31 31 31 31 32 32 32 32 32 32
31 31 31 31 30 30 30 31 31 31 32 32 33 33 34 36 37 37 37 37 36 35 35 35 34 35 34 34 33 33 33 33 33 32 32 32 32 32 32 33 33 33 33 34 34 34 34 34 34
31 30 31 31 32 31 31 32 33 32 31 32 33 33 34 35 36 37 38 37 37 37 36 36 36 36 37 36 36 36 35 35 35 34 34 34 34 34 34 34 35 35 35 35 35 36 36 36 36
30 30 31 31 32 32 32 32 33 33 32 33 33 33 33 35 37 38 39 39 39 38 38 38 38 38 38 38 38 37 37 37 37 37 37 37 37 36 36 36 36 36 37 37 37 37 37 37 37
31 31 32 32 32 33 33 33 33 32 33 33 34 35 35 36 37 38 39 40 40 40 39 39 39 39 39 39 38 38 38 38 39 39 39 38 38 38 37 37 37 38 38 38 38 38 38 39 39
32 32 32 32 32 33 34 34 33 32 34 35 35 35 36 36 37 37 38 39 40 41 40 40 40 40 40 40 40 40 39 38 39 40 40 39 39 39 38 39 39 40 40 40 40 40 39 40 40
32 34 34 33 33 34 35 34 32 33 34 35 36 35 36 36 37 38 38 39 40 41 41 41 42 41 41 41 41 40 40 40 40 41 41 41 41 40 40 40 40 41 42 41 41 41 41 41 41
33 34 34 33 34 34 34 33 32 33 33 34 35 35 35 35 36 37 38 39 40 41 42 42 42 42 42 42 41 41 41 42 41 41 41 42 42 42 42 42 42 42 42 43 42 43 43 43 43
32 33 32 32 32 33 33 32 32 33 34 34 34 35 35 35 35 35 36 37 40 40 41 42 42 42 42 42 42 42 43 43 43 43 43 43 43 43 43 43 44 43 44 44 44 45 45 45 45
31 31 31 30 31 31 32 31 31 31 32 32 33 34 35 35 34 35 35 36 38 40 40 41 43 43 44 44 44 44 44 45 44 45 45 44 44 45 44 44 44 44 45 45 46 46 46 47 47
30 31 31 31 31 32 32 31 30 30 31 31 31 32 33 34 34 35 35 36 37 38 40 41 42 43 44 45 45 46 46 46 46 46 46 46 46 46 46 45 46 46 46 47 47 47 47 48 49
29 29 29 30 30 31 32 31 30 30 30 30 30 31 32 33 33 34 35 36 37 38 39 41 42 43 44 45 46 46 47 48 48 47 48 48 48 48 47 47 48 47 47 48 48 48 49 49 50
28 28 29 29 29 29 30 31 28 28 28 29 29 29 30 31 32 33 34 35 36 37 38 40 41 42 44 45 47 48 47 48 48 49 49 50 50 50 50 50 50 50 50 50 49 48 49 50 51
27 28 28 28 29 30 29 30 28 28 28 28 29 29 29 30 31 31 32 34 35 36 37 39 40 41 43 44 46 47 48 49 49 49 50 50 50 51 51 51 52 51 51 51 51 51 51 51 51
27 27 28 28 29 30 28 30 29 28 29 28 28 28 29 30 31 31 31 32 34 34 36 37 39 41 43 44 45 46 48 49 50 50 50 50 50 51 52 52 53 53 52 53 53 52 53 52 52
26 27 28 29 30 30 29 30 29 27 28 28 27 28 28 29 30 30 30 31 33 34 34 36 38 40 42 44 45 45 47 49 50 51 51 51 51 51 51 52 53 54 53 54 54 54 54 53 52
25 26 27 29 29 29 28 28 27 26 27 27 27 27 27 27 28 29 30 31 33 33 35 36 37 39 41 42 44 45 47 49 50 51 51 51 51 51 51 52 53 53 53 53 53 53 53 53 52
24 25 26 27 28 27 26 26 26 24 25 26 26 27 27 27 28 29 30 31 32 33 33 35 37 39 40 42 43 44 45 47 49 50 51 52 52 52 52 52 52 51 51 50 51 50 51 50 50
24 24 24 25 26 26 24 24 23 24 24 25 26 27 27 27 28 29 30 31 31 32 33 35 38 39 40 41 42 43 44 45 46 48 49 50 51 51 51 51 51 50 50 49 49 49 48 47 47
22 23 24 24 25 25 25 22 22 22 24 25 25 26 26 27 28 29 30 30 31 33 34 35 37 38 40 41 42 43 43 44 45 46 47 48 49 50 50 49 49 48 48 48 48 47 45 46 45
21 21 22 23 24 24 23 20 21 21 22 23 24 24 25 26 28 29 30 30 32 32 34 35 36 36 37 39 41 42 43 44 44 45 45 45 46 47 48 48 48 48 48 47 46 45 44 44 43
Wind_Direction
252 250 250 250 250 251 252 254 254 255 255 253 252 252 251 251 250 249 247 246 247 245 245 243 243 243 245 247 248 250 251 254 255 256 258 256 259 259 258 259 260 262 263 265 269 271 272 270 269
251 250 250 250 251 252 253 255 255 254 254 253 252 251 251 250 250 249 247 246 246 246 245 243 244 244 244 246 248 249 251 253 255 256 257 257 259 260 260 261 262 263 264 265 268 269 271 270 270
252 251 250 251 252 254 256 256 255 254 254 253 252 252 251 249 249 249 248 246 246 246 246 243 243 245 245 247 249 250 250 252 254 254 255 256 258 259 260 261 263 264 264 265 267 269 270 271 271
253 252 251 252 253 254 255 256 255 255 254 253 252 251 249 248 248 248 247 246 245 246 247 245 244 246 247 248 250 250 250 253 254 255 257 258 259 260 263 263 263 265 265 267 268 269 271 273 273
254 254 254 253 254 255 255 255 255 255 254 253 251 250 248 247 247 247 246 245 245 245 245 246 245 247 248 248 249 250 251 253 254 256 259 261 261 261 263 262 264 265 266 267 267 269 271 274 274
255 256 255 255 256 255 255 254 253 253 253 253 250 248 247 246 246 246 246 246 245 246 245 246 245 246 247 248 249 251 251 253 255 258 260 262 263 262 263 263 264 266 266 266 268 269 270 272 273
255 256 256 257 256 255 255 255 254 253 253 253 251 247 246 246 246 246 246 246 246 246 245 248 246 246 247 248 249 251 253 254 256 259 260 262 263 264 265 266 266 267 267 267 269 269 270 272 274
254 256 255 256 257 256 256 254 254 255 254 252 250 248 244 244 245 245 245 245 245 245 245 246 246 247 248 249 250 252 253 255 257 259 261 263 265 266 266 265 266 267 268 268 269 270 271 273 274
255 255 255 257 258 258 257 255 255 254 253 252 251 249 246 245 245 245 246 246 246 246 246 246 246 248 249 251 251 253 255 256 257 259 261 264 266 268 268 267 266 266 267 269 270 271 272 273 273
255 256 256 257 257 258 257 257 255 255 253 252 251 250 248 245 246 246 246 246 247 247 248 247 247 249 250 251 252 253 255 256 257 259 262 264 266 268 269 269 268 267 268 269 270 270 272 272 273
256 256 255 256 257 258 258 257 256 256 255 254 253 251 249 248 247 246 246 247 247 247 248 248 249 250 250 252 253 255 257 259 258 260 262 265 267 268 269 269 269 269 269 269 270 270 272 273 273
260 259 258 257 258 259 259 258 257 259 258 256 254 254 251 249 249 247 247 247 247 247 248 249 250 251 251 252 253 256 258 260 260 261 263 264 267 268 269 269 268 269 269 269 270 270 272 272 272
261 261 259 259 259 260 261 259 259 258 259 257 256 255 254 252 250 249 248 247 248 248 249 250 252 252 253 253 254 257 259 261 262 261 262 264 266 267 268 268 267 267 269 269 269 270 271 271 272
261 260 259 260 261 260 260 259 259 259 260 260 259 257 256 254 252 250 249 248 248 248 249 251 252 252 253 253 255 257 259 260 262 262 263 264 265 267 267 266 266 267 268 269 270 270 271 271 271
261 260 259 260 260 260 259 258 259 260 260 261 262 260 258 255 252 252 251 250 249 249 249 250 251 252 253 254 254 256 258 261 261 262 263 264 265 266 266 266 267 267 268 269 270 270 270 270 271
264 263 261 260 259 259 259 259 258 259 260 260 261 261 259 256 254 252 252 251 250 249 249 250 251 252 253 254 255 255 257 260 263 263 263 263 264 265 267 268 268 268 268 268 270 271 271 270 271
264 264 263 261 260 261 261 260 258 259 260 260 259 260 260 258 255 253 252 252 250 249 249 250 251 252 253 254 255 257 258 261 262 264 264 264 264 265 267 269 269 268 267 267 269 271 271 271 271
265 265 264 262 261 261 261 262 261 261 261 261 260 260 259 259 257 255 253 252 250 249 249 250 251 253 254 255 256 258 259 260 262 263 264 264 265 266 267 268 269 269 268 268 268 270 271 271 271
266 266 265 264 263 262 261 262 262 262 262 261 261 260 259 259 258 256 253 252 251 251 251 252 253 254 255 256 257 259 260 260 261 262 263 265 266 267 267 267 269 269 269 269 269 270 271 272 272
265 265 265 264 263 263 262 260 260 260 261 261 261 261 259 258 257 256 254 253 253 253 253 253 254 255 256 257 258 260 261 262 262 263 263 265 266 268 268 268 269 270 270 270 272 272 272 273 274
265 264 263 264 264 264 263 259 259 260 261 262 262 262 261 260 259 258 256 256 255 254 254 255 255 256 257 258 259 261 261 261 262 263 265 266 266 267 268 269 270 271 271 272 273 272 272 273 274
265 263 263 264 265 265 264 264 259 260 261 262 262 262 262 262 262 261 258 257 256 256 256 256 257 258 259 260 261 262 262 262 263 264 266 266 267 267 268 269 270 271 272 272 273 273 273 273 274
265 263 262 264 267 267 265 266 263 261 261 263 264 263 262 262 263 262 260 259 257 258 259 258 259 259 260 261 262 263 263 263 264 265 266 267 267 268 269 269 270 271 272 272 273 273 273 274 274
264 262 262 263 266 267 266 267 266 265 265 264 264 263 263 263 263 263 263 262 261 261 263 262 261 261 262 263 264 264 264 265 265 265 266 266 267 268 269 270 270 271 272 272 273 273 273 274 274
262 261 262 264 266 269 269 268 268 268 267 265 265 266 265 264 264 264 264 265 265 264 265 266 264 264 264 265 265 266 266 266 266 266 265 266 267 268 269 270 271 272 272 272 273 273 272 273 274
262 261 263 266 269 271 270 268 269 269 268 268 268 267 265 264 265 266 266 267 268 267 267 267 267 267 267 268 268 268 268 268 267 267 266 266 268 269 269 270 271 272 273 272 272 272 271 272 273
264 262 264 267 270 272 271 270 269 270 270 268 266 264 264 266 268 269 270 270 270 270 271 270 270 270 270 270 270 270 271 271 269 268 268 268 268 268 269 269 269 270 272 273 272 271 270 271 271
265 264 264 265 268 271 272 273 273 271 270 269 268 267 266 268 271 272 273 272 273 273 274 274 273 273 273 272 272 272 273 273 273 271 270 269 269 269 269 268 268 269 269 270 271 270 270 269 270
263 262 261 263 267 272 276 274 275 274 274 274 272 270 270 271 273 273 275 274 274 275 276 277 277 277 276 274 273 274 275 275 275 274 273 271 270 269 268 267 267 268 268 269 269 269 269 270 270
265 264 264 266 269 272 277 276 276 276 276 277 277 276 274 275 276 276 277 277 277 278 279 279 281 280 279 277 275 275 276 277 277 275 274 273 271 269 268 267 267 267 267 268 269 268 269 269 268
Height
5788 5790 5792 5794 5795 5797 5799 5802 5804 5805 5806 5807 5807 5808 5810 5811 5814 5817 5817 5817 5818 5820 5822 5823 5825 5827 5828 5829 5831 5832 5833 5834 5835 5836 5837 5837 5838 5839 5840 5840 5841 5842 5842 5843 5843 5844 5844 5844 5845
5782 5784 5786 5787 5789 5791 5794 5797 5798 5799 5800 5801 5801 5803 5804 5805 5807 5809 5811 5812 5814 5816 5817 5819 5821 5823 5824 5826 5827 5828 5830 5831 5832 5833 5834 5835 5835 5836 5837 5837 5838 5839 5839 5840 5840 5841 5841 5842 5842
5777 5778 5781 5781 5783 5786 5789 5791 5792 5792 5793 5794 5795 5796 5798 5800 5802 5804 5805 5807 5809 5811 5813 5814 5817 5818 5820 5822 5823 5825 5826 5827 5828 5829 5830 5831 5832 5833 5833 5834 5835 5836 5836 5837 5837 5837 5838 5838 5839
5772 5773 5774 5776 5778 5781 5783 5784 5785 5786 5787 5788 5789 5790 5792 5794 5796 5798 5800 5802 5804 5806 5808 5810 5812 5814 5816 5817 5819 5821 5822 5823 5824 5825 5826 5827 5828 5829 5830 5830 5831 5832 5832 5833 5833 5834 5834 5835 5835
5766 5767 5769 5770 5773 5775 5776 5777 5778 5779 5780 5781 5782 5784 5786 5788 5790 5793 5795 5797 5799 5801 5803 5805 5807 5809 5811 5813 5815 5816 5818 5819 5820 5821 5822 5823 5824 5825 5825 5826 5827 5828 5828 5829 5829 5830 5830 5831 5831
5760 5762 5763 5764 5767 5769 5770 5771 5771 5772 5773 5774 5775 5777 5780 5782 5784 5787 5789 5792 5794 5796 5798 5800 5802 5804 5806 5808 5810 5811 5813 5814 5815 5816 5817 5818 5819 5820 5821 5821 5822 5823 5823 5824 5825 5825 5826 5826 5826
5755 5756 5757 5759 5760 5762 5764 5764 5765 5766 5767 5768 5769 5770 5773 5776 5779 5781 5784 5786 5788 5790 5793 5795 5797 5799 5801 5803 5805 5807 5808 5809 5810 5812 5812 5813 5814 5815 5816 5816 5817 5818 5818 5819 5819 5820 5820 5821 5821
5748 5750 5751 5753 5754 5756 5757 5758 5759 5760 5761 5762 5762 5764 5767 5770 5772 5775 5777 5780 5782 5785 5787 5789 5792 5794 5796 5798 5799 5801 5803 5804 5805 5806 5807 5808 5809 5810 5810 5811 5812 5812 5813 5813 5814 5814 5814 5815 5815
5742 5744 5745 5747 5748 5750 5750 5751 5752 5753 5754 5755 5756 5758 5760 5763 5765 5768 5771 5774 5776 5779 5781 5783 5785 5788 5790 5792 5793 5795 5797 5798 5799 5800 5802 5802 5803 5804 5804 5805 5806 5806 5807 5807 5807 5807 5808 5808 5808
5736 5738 5740 5741 5742 5743 5743 5744 5745 5746 5748 5749 5750 5751 5752 5755 5758 5761 5764 5767 5770 5773 5775 5777 5779 5781 5783 5785 5787 5789 5790 5791 5793 5794 5795 5796 5797 5798 5798 5799 5799 5800 5800 5800 5800 5800 5800 5800 5801
5729 5731 5733 5734 5735 5735 5736 5737 5738 5739 5742 5743 5743 5744 5745 5748 5751 5754 5757 5760 5763 5766 5768 5770 5772 5775 5777 5778 5780 5782 5783 5784 5786 5787 5789 5790 5790 5791 5791 5791 5791 5792 5792 5792 5792 5793 5793 5793 5793
5723 5725 5726 5727 5728 5729 5729 5730 5731 5733 5735 5735 5736 5737 5739 5741 5744 5747 5750 5752 5755 5758 5760 5763 5765 5767 5769 5771 5773 5775 5776 5778 5779 5780 5781 5782 5783 5783 5783 5783 5783 5784 5784 5784 5784 5785 5785 5785 5785
5717 5718 5719 5720 5721 5722 5722 5723 5724 5726 5727 5727 5729 5730 5732 5734 5736 5739 5742 5745 5747 5750 5752 5755 5757 5759 5761 5763 5765 5767 5769 5770 5771 5772 5773 5774 5775 5775 5775 5775 5775 5775 5775 5776 5776 5776 5776 5776 5776
5710 5711 5712 5713 5714 5714 5715 5716 5717 5720 5719 5720 5721 5723 5724 5726 5728 5730 5733 5736 5739 5742 5744 5747 5749 5751 5753 5755 5757 5759 5760 5761 5762 5763 5764 5765 5766 5766 5766 5766 5766 5767 5767 5767 5767 5767 5767 5767 5767
5702 5704 5705 5706 5706 5706 5707 5709 5711 5712 5712 5712 5714 5715 5716 5717 5719 5721 5724 5727 5729 5732 5735 5738 5740 5742 5744 5746 5748 5750 5751 5752 5753 5754 5755 5756 5756 5756 5757 5757 5757 5757 5758 5757 5757 5757 5757 5757 5758
5694 5696 5697 5698 5698 5698 5700 5702 5704 5703 5703 5704 5705 5706 5707 5709 5711 5713 5715 5717 5720 5723 5726 5728 5731 5733 5735 5737 5739 5740 5742 5743 5744 5745 5745 5746 5747 5747 5748 5747 5747 5748 5748 5748 5748 5748 5748 5748 5748
5686 5687 5688 5690 5690 5690 5690 5693 5696 5695 5695 5696 5697 5698 5699 5700 5702 5704 5706 5708 5711 5713 5716 5719 5721 5723 5725 5727 5729 5731 5732 5733 5734 5735 5736 5736 5737 5737 5737 5738 5738 5737 5738 5738 5738 5738 5738 5738 5738
5679 5679 5680 5681 5681 5682 5682 5685 5687 5687 5687 5688 5689 5689 5690 5692 5694 5695 5697 5699 5701 5704 5706 5709 5711 5713 5715 5717 5719 5720 5722 5723 5724 5725 5725 5726 5727 5727 5727 5727 5727 5727 5727 5727 5728 5727 5727 5727 5727
5672 5672 5673 5674 5674 5674 5675 5677 5678 5679 5679 5680 5680 5681 5682 5683 5685 5686 5688 5689 5691 5694 5696 5699 5701 5703 5705 5707 5709 5710 5712 5713 5714 5714 5715 5715 5716 5716 5716 5717 5717 5716 5717 5716 5716 5716 5716 5715 5715
5664 5665 5666 5667 5666 5666 5667 5669 5670 5671 5671 5672 5672 5672 5673 5674 5676 5677 5678 5680 5682 5685 5687 5689 5691 5692 5694 5696 5698 5699 5700 5701 5703 5703 5704 5704 5704 5704 5705 5706 5706 5705 5705 5705 5704 5704 5704 5704 5702
5657 5658 5659 5658 5658 5658 5659 5661 5663 5664 5664 5664 5664 5664 5665 5666 5667 5668 5669 5671 5673 5675 5677 5678 5680 5681 5683 5685 5686 5687 5688 5690 5691 5691 5692 5692 5692 5693 5694 5694 5694 5694 5693 5693 5692 5692 5692 5692 5690
5650 5651 5651 5651 5651 5651 5652 5651 5656 5656 5656 5656 5657 5657 5657 5658 5659 5659 5660 5661 5663 5665 5666 5668 5669 5670 5672 5673 5674 5675 5676 5678 5679 5679 5680 5680 5680 5681 5681 5682 5681 5681 5681 5681 5680 5679 5678 5678 5677
5643 5643 5644 5644 5643 5644 5645 5643 5648 5648 5648 5649 5650 5650 5650 5650 5651 5651 5651 5652 5654 5655 5656 5658 5658 5659 5661 5661 5662 5663 5664 5665 5666 5666 5667 5667 5667 5668 5668 5669 5668 5668 5668 5667 5667 5666 5665 5665 5664
5636 5637 5637 5637 5636 5637 5638 5637 5639 5641 5641 5642 5643 5643 5643 5643 5643 5643 5644 5645 5646 5646 5647 5647 5648 5649 5649 5649 5650 5650 5651 5652 5653 5653 5654 5654 5654 5655 5655 5655 5655 5655 5655 5654 5654 5653 5652 5652 5651
5630 5630 5630 5630 5630 5630 5631 5629 5632 5634 5634 5635 5636 5636 5635 5636 5636 5636 5637 5638 5638 5638 5638 5638 5637 5638 5638 5637 5638 5638 5639 5639 5640 5640 5640 5641 5641 5642 5642 5641 5641 5641 5641 5641 5640 5639 5639 5638 5637
5623 5624 5625 5624 5624 5624 5624 5623 5626 5627 5627 5627 5628 5628 5629 5629 5629 5630 5630 5630 5629 5629 5628 5628 5627 5627 5626 5626 5626 5626 5626 5626 5626 5627 5627 5627 5627 5628 5628 5628 5628 5627 5627 5626 5626 5625 5625 5625 5624
5617 5617 5618 5618 5617 5617 5617 5618 5620 5621 5620 5620 5621 5621 5622 5622 5622 5622 5622 5622 5621 5620 5619 5618 5617 5616 5615 5615 5614 5614 5614 5613 5613 5613 5613 5613 5614 5614 5614 5614 5614 5614 5613 5613 5612 5612 5611 5611 5611
5611 5612 5612 5612 5611 5611 5612 5613 5614 5614 5614 5614 5614 5615 5615 5615 5615 5614 5614 5614 5613 5612 5610 5609 5607 5606 5604 5603 5603 5602 5602 5601 5600 5599 5599 5599 5600 5600 5600 5600 5600 5600 5600 5599 5599 5599 5599 5599 5599
5606 5606 5606 5606 5606 5606 5606 5610 5609 5608 5608 5608 5608 5608 5608 5608 5607 5606 5606 5605 5604 5602 5600 5599 5597 5595 5593 5592 5591 5590 5589 5588 5587 5586 5586 5586 5586 5586 5586 5586 5586 5586 5586 5587 5587 5587 5587 5587 5587
5601 5601 5601 5602 5601 5600 5600 5605 5603 5602 5601 5601 5601 5601 5600 5600 5599 5598 5597 5596 5595 5593 5591 5589 5587 5584 5582 5580 5579 5578 5577 5576 5574 5573 5573 5572 5572 5572 5572 5572 5573 5573 5574 5574 5574 5575 5576 5576 5577